Regional Weather Roundup
Issued by NWS

Home | Current Version | Previous Version | Graphics & Text | Print | Product List | Glossary On
Versions: 1 2 3 4 5 6 7 8 9 10 11 12 13 14 15 16 17 18 19 20 21 22 23 24 25 26 27 28 29 30 31 32 33 34 35 36 37 38 39 40 41 42 43 44 45 46 47 48 49 50
000
ASUS43 KTOP 160459
RWRKS

WEATHER ROUNDUP FOR KANSAS
NATIONAL WEATHER SERVICE GOODLAND KS
1200 AM CDT WED APR 16 2014

NOTE:  "FAIR" INDICATES FEW OR NO CLOUDS BELOW 12,000 FEET WITH NO
SIGNIFICANT WEATHER AND/OR OBSTRUCTIONS TO VISIBILITY.

KSZ001>006-013>018-027>032-041>047-160600-
NORTHWEST KANSAS

CITY           SKY/WX    TMP DP  RH WIND       PRES   REMARKS
GOODLAND       PTCLDY    44  26  49 S12       29.68F
HAYS           PTCLDY    54  19  26 S22G29    29.78F
HILL CITY      PTCLDY    54  19  25 S17G25    29.73F
RUSSELL        PTCLDY    52  20  28 S20       29.78F
$$

KSZ061>065-074>080-084>089-160600-
SOUTHWEST KANSAS

CITY           SKY/WX    TMP DP  RH WIND       PRES   REMARKS
DODGE CITY     PTCLDY    50  16  25 S24G33    29.80F
ELKHART          N/A     51  17  26 S21         N/A
GARDEN CITY    PTCLDY    48  20  32 S16       29.75F
GREAT BEND     MOCLDY    52  19  28 S24G33    29.80F
LIBERAL        PTCLDY    52  14  22 S20G25    29.79F
$$

KSZ066>073-081>083-090>101-160600-
SOUTHEAST KANSAS

CITY           SKY/WX    TMP DP  RH WIND       PRES   REMARKS
CHANUTE        PTCLDY    47  28  47 SE13      30.04F
COFFEYVILLE    CLEAR     46  28  49 S9        30.06F
HUTCHINSON     MOCLDY    52  17  25 S21G26    29.88F
MEDICINE LODGE   N/A     51  19  28 S12G17    29.90F
NEWTON         CLOUDY    50  16  25 S18G24    29.94F
PARSONS        CLEAR     48  28  46 SE8       30.06F
WICHITA INTL   PTCLDY    51  19  28 S17       29.93F
WICHITA JABRA  PTCLDY    49  21  33 S16       29.93F
WINFIELD       CLEAR     50  22  33 S15       29.98F
$$

KSZ007>012-019>026-033>040-048>060-102>105-160600-
NORTHEAST KANSAS

CITY           SKY/WX    TMP DP  RH WIND       PRES   REMARKS
CONCORDIA      CLEAR     50  17  27 S20       29.82F
EMPORIA        MOCLDY    48  28  46 S21G28    29.96F
LAWRENCE       CLEAR     46  31  55 SE12      30.00F
MANHATTAN      CLEAR     50  24  36 S16       29.90F
OLATHE IND     PTCLDY    45  29  53 SE13      30.02F
OLATHE EXE     PTCLDY    45  27  49 S17G24    30.02F
SALINA         PTCLDY    53  16  23 S18       29.86F
TOPEKA BILLARD PTCLDY    49  29  46 S16       29.97F
TOPEKA FORBES  CLEAR     47  28  47 S16       29.96F
$$



USA.gov is the U.S. government's official web portal to all federal, state and local government web resources and services.